BSAT-3C (JCSAT-110R)

Last updated on Sat Mar 14 2026 00:02:54 GMT+0000 (Coordinated Universal Time)

1 37776U 11041B 26072.59191232 -.00000350 00000+0 00000+0 0 9993 2 37776 0.0065 229.1665 0000152 227.3803 37.6927 1.00267597 49517
UTC large
Height (km)
Speed (km/s)
/
Latitude / Longitude
Inclination (degrees)
Orbital Period (minutes)
Azimuth
Elevation
Range (km)
Doppler Factor

Next 0 passes for location: London (51.5072 / 0.1276)

Sorry there are no passes over London.